This is the latest recevied weather packets stored in our database for station/object DD5ZT-13. If no packets are shown the sender has not sent any weather packets the latest 1 day(s).
| Time | Temp. | Humidity | Pressure | Rain* | Wind** | Luminosity | Snow |
|---|---|---|---|---|---|---|---|
| 1778035959 | 12.22° C | 63% | 1010.6 hPa | 0 mm | - | - | - |
| 1778035799 | 12.22° C | 63% | 1010.6 hPa | 0 mm | - | - | - |
| 1778035359 | 12.78° C | 59% | 1010.6 hPa | 0 mm | - | - | - |
| 1778035174 | 12.78° C | 59% | 1010.6 hPa | 0 mm | - | - | - |
| 1778034685 | 14.44° C | 65% | 1010.6 hPa | 0 mm | - | - | - |
| 1778034549 | 14.44° C | 65% | 1010.6 hPa | 0 mm | - | - | - |
| 1778034159 | 13.89° C | 62% | 1010.7 hPa | 0 mm | - | - | - |
| 1778033924 | 13.89° C | 62% | 1010.7 hPa | 0 mm | - | - | - |
| 1778033310 | 13.33° C | 59% | 1010.7 hPa | 0 mm | - | - | - |
| 1778033298 | 13.33° C | 59% | 1010.7 hPa | 0 mm | - | - | - |
| 1778032680 | 13.89° C | 64% | 1010.9 hPa | 0 mm | - | - | - |
| 1778032673 | 13.89° C | 64% | 1010.9 hPa | 0 mm | - | - | - |
| 1778031459 | 13.33° C | 68% | 1010.9 hPa | 0 mm | - | - | - |
| 1778031423 | 13.33° C | 68% | 1010.9 hPa | 0 mm | - | - | - |
| 1778030839 | 12.78° C | 65% | 1011.1 hPa | 0 mm | - | - | - |
| 1778030798 | 12.78° C | 65% | 1011.1 hPa | 0 mm | - | - | - |
| 1778030185 | 12.22° C | 66% | 1011.1 hPa | 0 mm | - | - | - |
| 1778030173 | 12.22° C | 66% | 1011.1 hPa | 0 mm | - | - | - |
| 1778029659 | 11.67° C | 67% | 1011.1 hPa | 0 mm | - | - | - |
| 1778029548 | 11.67° C | 67% | 1011.1 hPa | 0 mm | - | - | - |
| 1778028385 | 11.67° C | 69% | 1011 hPa | 0 mm | - | - | - |
| 1778027859 | 11.67° C | 65% | 1011.2 hPa | 0 mm | - | - | - |
| 1778027672 | 11.67° C | 65% | 1011.2 hPa | 0 mm | - | - | - |
| 1778027047 | 11.67° C | 63% | 1011.4 hPa | 0 mm | - | - | - |
| 1778026585 | 11.67° C | 62% | 1011.4 hPa | 0 mm | - | - | - |
* Rain latest hour (hover to see other rain measurements)
** Current wind speed in m/s (hover to see current wind gust speed)